N2YJJ-2 Weather Reports


time (UTC)temp
F
wind
direction
speed
knots
gust
knots
rain 1hr
in
rain 24hr
in
rain mn
in
humidity
%
barometer
mb
20260505123004 65 202 2.6 7.0 0.00 0.00 0.00 75 1006.7
20260505122004 65 227 1.7 5.2 0.00 0.00 0.00 73 1006.8
20260505121004 65 207 2.6 7.8 0.00 0.00 0.00 73 1006.7
20260505120002 65 223 3.5 7.0 0.00 0.00 0.00 74 1006.5
20260505115002 64 235 1.7 10.4 0.00 0.00 0.00 75 1006.4
20260505114002 64 213 2.6 7.8 0.00 0.00 0.00 77 1006.4
20260505113002 63 222 2.6 7.0 0.00 0.00 0.00 78 1006.3
20260505111001 63 230 1.7 5.2 0.00 0.00 0.00 79 1006.0
20260505102001 61 218 1.7 7.8 0.00 0.00 0.00 80 1005.2
20260505101001 61 239 2.6 10.4 0.00 0.00 0.00 82 1005.2
20260505100002 60 234 2.6 10.4 0.00 0.00 0.00 83 1005.0
20260505095001 60 241 1.7 6.1 0.00 0.00 0.00 84 1005.1
20260505094002 59 242 2.6 7.8 0.00 0.00 0.00 86 1004.9
20260505093001 58 193 0.9 7.8 0.00 0.00 0.00 87 1004.9
20260505092002 58 213 0.9 2.6 0.00 0.00 0.00 87 1004.8
20260505091001 58 211 0.9 4.3 0.00 0.00 0.00 87 1004.7
20260505090001 58 204 1.7 5.2 0.00 0.00 0.00 87 1005.0
20260505085002 58 228 3.5 12.2 0.00 0.00 0.00 88 1005.1
20260505084002 58 176 1.7 7.8 0.00 0.00 0.00 88 1005.3
20260505083002 57 188 1.7 4.3 0.00 0.00 0.00 88 1005.3
20260505081002 58 180 2.6 7.0 0.00 0.00 0.00 88 1005.5
20260505080003 58 190 1.7 8.7 0.00 0.00 0.00 87 1005.4
20260505075002 59 233 0.9 2.6 0.00 0.00 0.00 86 1005.4
20260505074002 59 219 1.7 12.2 0.00 0.00 0.00 86 1005.5
20260505073003 60 187 1.7 7.0 0.00 0.00 0.00 85 1005.5
20260505071002 60 200 0.9 7.8 0.00 0.00 0.00 83 1005.5
20260505070002 60 233 1.7 7.0 0.00 0.00 0.00 84 1005.5
20260505064002 61 196 4.3 8.7 0.00 0.00 0.00 81 1006.5
20260505062003 62 231 2.6 10.4 0.00 0.00 0.00 79 1006.7
20260505061002 62 231 5.2 12.2 0.00 0.00 0.00 76 1006.6
20260505060003 63 226 3.5 10.4 0.00 0.00 0.00 74 1006.4
20260505055002 64 201 2.6 7.8 0.00 0.00 0.00 71 1006.7
20260505054002 64 240 3.5 8.7 0.00 0.00 0.00 70 1006.5
20260505053003 65 238 4.3 7.8 0.00 0.00 0.00 69 1006.6
20260505052003 65 220 3.5 13.0 0.00 0.00 0.00 69 1006.6
20260505051002 65 208 4.3 13.9 0.00 0.00 0.00 69 1006.5
20260505041003 62 219 2.6 7.0 0.00 0.00 0.00 71 1006.4
20260505040004 61 200 1.7 4.3 0.00 0.00 0.00 70 1006.3
20260505034002 62 173 1.7 7.8 0.00 0.00 0.00 68 1006.5
20260505033002 62 200 0.9 6.1 0.00 0.00 0.00 67 1006.7
20260505032003 62 202 1.7 5.2 0.00 0.00 0.00 66 1007.0
20260505030002 62 203 2.6 7.8 0.00 0.00 0.00 62 1007.3
20260505025002 61 214 2.6 6.1 0.00 0.00 0.00 64 1007.2
20260505024002 60 207 1.7 4.3 0.00 0.00 0.00 65 1007.2
20260505023002 59 192 1.7 4.3 0.00 0.00 0.00 68 1007.1
20260505022002 59 191 1.7 4.3 0.00 0.00 0.00 69 1007.1
20260505021003 58 159 0.9 2.6 0.00 0.00 0.00 71 1007.1
20260505020002 58 157 0.9 1.7 0.00 0.00 0.00 72 1007.1
20260505015002 58 200 0.0 0.0 0.00 0.00 0.00 71 1007.1
20260505014003 59 200 0.0 1.7 0.00 0.00 0.00 71 1007.1
20260505013003 59 200 0.9 1.7 0.00 0.00 0.00 70 1007.2
20260505012002 60 200 0.9 0.9 0.00 0.00 0.00 70 1007.3
20260505011002 61 200 0.0 0.0 0.00 0.00 0.00 69 1007.2
20260505010002 62 200 0.0 1.7 0.00 0.00 0.00 66 1007.1
20260505005002 63 200 0.9 1.7 0.00 0.00 0.00 65 1007.0
20260505003002 65 200 0.9 1.7 0.00 0.00 0.00 60 1007.0
20260505001003 66 171 0.9 2.6 0.00 0.01 0.00 56 1007.1
20260504235002 68 223 0.9 2.6 0.00 0.01 0.00 54 1007.1
20260504234002 69 204 1.7 2.6 0.00 0.01 0.00 52 1007.2
20260504233003 69 258 1.7 6.1 0.00 0.01 0.00 50 1007.2
20260504232003 70 247 1.7 4.3 0.00 0.01 0.00 49 1007.3
20260504231002 70 245 2.6 7.8 0.00 0.01 0.00 46 1007.3
20260504230002 70 219 1.7 6.1 0.00 0.02 0.00 46 1007.3
20260504225002 71 236 1.7 8.7 0.00 0.02 0.00 46 1007.3
20260504224002 71 242 2.6 8.7 0.00 0.02 0.00 43 1007.4
20260504223003 72 232 2.6 8.7 0.00 0.03 0.00 41 1007.3
20260504222002 72 241 2.6 10.4 0.00 0.03 0.00 41 1007.4
20260504221004 72 300 1.7 10.4 0.00 0.03 0.00 47 1007.5
20260504215003 73 229 5.2 12.2 0.00 0.03 0.00 40 1007.6
20260504214003 73 250 2.6 12.2 0.00 0.03 0.00 42 1007.6
20260504213002 74 260 6.1 17.4 0.00 0.03 0.00 41 1007.5
20260504212003 74 230 2.6 12.2 0.00 0.03 0.00 43 1007.5
20260504211002 74 240 4.3 11.3 0.00 0.03 0.00 42 1007.6
20260504210004 74 237 5.2 12.2 0.00 0.03 0.00 43 1007.5
20260504205003 74 230 4.3 8.7 0.00 0.03 0.00 43 1007.6
20260504204003 74 243 7.0 14.8 0.00 0.03 0.00 44 1007.6
20260504203003 74 268 4.3 10.4 0.00 0.03 0.00 45 1007.6
20260504202003 74 242 5.2 14.8 0.00 0.03 0.00 42 1007.7
20260504201002 74 253 5.2 11.3 0.00 0.03 0.00 44 1007.8
20260504200003 74 223 2.6 11.3 0.00 0.03 0.00 48 1008.0
20260504195002 73 236 4.3 11.3 0.00 0.03 0.00 47 1008.3
20260504194004 73 228 6.1 11.3 0.00 0.03 0.00 46 1008.6
20260504193003 73 216 5.2 13.0 0.00 0.03 0.00 46 1008.7
20260504192003 73 242 5.2 11.3 0.00 0.03 0.00 48 1008.7
20260504191003 73 245 4.3 10.4 0.00 0.03 0.00 50 1008.9
20260504190003 72 230 4.3 13.0 0.00 0.03 0.00 51 1009.0
20260504185003 72 207 4.3 13.0 0.00 0.03 0.00 52 1009.2
20260504184003 71 225 2.6 13.0 0.00 0.03 0.00 53 1009.2
20260504183003 71 203 4.3 11.3 0.00 0.03 0.00 54 1009.3
20260504182003 71 249 5.2 14.8 0.00 0.03 0.00 52 1009.5
20260504180003 70 257 4.3 11.3 0.00 0.03 0.00 57 1009.6
20260504175003 69 214 6.1 11.3 0.00 0.03 0.00 53 1009.8
20260504174003 69 233 6.1 13.0 0.00 0.03 0.00 54 1009.9
20260504173003 69 237 5.2 17.4 0.00 0.03 0.00 54 1010.0
20260504172003 68 227 4.3 13.0 0.00 0.03 0.00 55 1010.1
20260504171003 68 209 6.1 15.6 0.00 0.03 0.00 54 1010.4
20260504141003 63 245 5.2 10.4 0.00 0.03 0.00 57 1010.9